Weather History for Berlin Tegel, Germany

Change the Weather History Date:

Wednesday, January 8, 2014

  Actual Average Record
Temperature  
Mean Temperature 46 °F -  
Max Temperature 51 °F 38 °F 53 °F (2005)
Min Temperature 41 °F 28 °F 1 °F (2003)
Degree Days  
Heating Degree Days 19    
Moisture  
Dew Point 43 °F    
Average Humidity 84    
Maximum Humidity 100    
Minimum Humidity 66    
Precipitation  
Precipitation 0.12 in - - ()
Sea Level Pressure  
Sea Level Pressure 29.99 in    
Wind  
Wind Speed 8 mph ()    
Max Wind Speed 23 mph    
Max Gust Speed 34 mph    
Visibility 7.6 miles    
Events Rain    
Averages and records for this station are not official NWS values.
T = Trace of Precipitation, MM = Missing Value Source: Averaged Metar Reports

Daily Weather History Graph

Daily Weather History Graph

Search for Another Location

Airport:

Trip Planner

Search our weather history database for the weather conditions in past years. The results will help you decide how hot, cold, wet, or windy it might be!

Date:

Astronomy

Jan. 08, 2014 Rise Set
Actual Time 8:15 AM CET 4:11 PM CET
Civil Twilight 7:34 AM CET 4:52 PM CET
Nautical Twilight 6:51 AM CET 5:35 PM CET
Astronomical Twilight 6:09 AM CET 6:17 PM CET
Moon 11:23 AM CET (1/8) 12:31 AM CET (1/8)
Length of Visible Light 9h 17m
Length of Day
7h 56m
First Quarter, 53% of the Moon is Illuminated
Jan 8
First Quarter
Jan 16
Full
Jan 24
Last Quarter
Jan 30
New
Feb 6
First Quarter

Hourly Weather History & Observations

Time (CET) Temp. Windchill Dew Point Humidity Pressure Visibility Wind Dir Wind Speed Gust Speed Precip Events Conditions
12:00 AM 47 °F - 42 °F 78% 29.98 in 25 mi SW 4.5 mph - -   Mostly Cloudy
12:20 AM 48.2 °F - 42.8 °F 82% 29.95 in 6.2 mi South 8.1 mph - N/A Rain Light Rain
12:50 AM 48.2 °F - 42.8 °F 82% 29.98 in 6.2 mi SSW 5.8 mph - N/A Rain Light Rain
1:00 AM 47 °F - 43 °F 81% 29.98 in 17 mi SSW 6.7 mph - - Rain Light Rain
1:20 AM 48.2 °F - 44.6 °F 87% 29.95 in 6.2 mi South 6.9 mph - N/A Rain Light Rain
1:50 AM 46.4 °F 43.5 °F 44.6 °F 93% 29.98 in 6.2 mi South 5.8 mph - N/A Rain Light Rain
2:00 AM 47 °F - 45 °F 88% 29.98 in 16 mi South 4.5 mph - - Rain Light Rain
2:20 AM 46.4 °F 42.9 °F 44.6 °F 93% 29.95 in 6.2 mi South 6.9 mph - N/A Rain Light Rain
2:50 AM 46.4 °F 42.4 °F 44.6 °F 93% 29.98 in 6.2 mi SSW 8.1 mph - N/A Rain Light Rain
3:00 AM 47 °F - 45 °F 90% 29.98 in 16 mi SSW 8.9 mph - - Rain Light Rain
3:20 AM 46.4 °F 42.4 °F 44.6 °F 93% 29.98 in 6.2 mi SSW 8.1 mph - N/A Rain Light Rain
3:50 AM 48.2 °F - 46.4 °F 93% 29.95 in - SSW 6.9 mph - N/A   Clear
4:00 AM 47 °F - 46 °F 94% 29.97 in 22 mi SSW 6.7 mph - - Rain Light Rain
4:20 AM 46.4 °F 42.4 °F 44.6 °F 93% 29.95 in 6.2 mi SSW 8.1 mph - N/A   Scattered Clouds
4:50 AM 46.4 °F 42.4 °F 44.6 °F 93% 29.95 in - SSW 8.1 mph - N/A   Clear
5:00 AM 46 °F - 44 °F 90% 29.96 in 22 mi SSW 6.7 mph - -   Scattered Clouds
5:20 AM 46.4 °F 42.9 °F 44.6 °F 93% 29.95 in - SSW 6.9 mph - N/A   Clear
5:50 AM 46.4 °F 43.5 °F 42.8 °F 87% 29.95 in - South 5.8 mph - N/A   Clear
6:00 AM 46 °F - 44 °F 89% 29.96 in 22 mi South 4.5 mph - -   Clear
6:20 AM 44.6 °F 43.1 °F 42.8 °F 93% 29.95 in - SSE 3.5 mph - N/A   Clear
6:50 AM 44.6 °F 40.2 °F 44.6 °F 100% 29.95 in - SSW 8.1 mph - N/A   Unknown
7:00 AM 45 °F - 44 °F 93% 29.96 in 22 mi SSW 6.7 mph - -   Partly Cloudy
7:20 AM 46.4 °F 42.9 °F 44.6 °F 93% 29.92 in 6.2 mi South 6.9 mph - N/A Rain Light Rain
7:50 AM 46.4 °F 41.9 °F 44.6 °F 93% 29.95 in 6.2 mi SSW 9.2 mph - N/A Rain Light Rain
8:00 AM 46 °F - 44 °F 92% 29.94 in 9 mi SSW 8.9 mph - - Rain Light Rain
8:20 AM 46.4 °F 40.7 °F 44.6 °F 93% 29.95 in 3.7 mi SSW 12.7 mph - N/A Rain Rain
8:50 AM 48.2 °F - 46.4 °F 93% 29.92 in 6.2 mi SSW 9.2 mph - N/A Rain Light Rain
9:00 AM 48 °F - 46 °F 89% 29.93 in 14 mi SSW 8.9 mph - - Rain Light Rain
9:20 AM 48.2 °F - 46.4 °F 93% 29.92 in 6.2 mi SSW 9.2 mph - N/A   Mostly Cloudy
9:50 AM 50.0 °F - 46.4 °F 87% 29.92 in 6.2 mi SW 12.7 mph - N/A   Scattered Clouds
10:00 AM 50 °F - 47 °F 84% 29.93 in 19 mi SW 11.2 mph - - Rain Light Rain
10:20 AM 50.0 °F - 46.4 °F 87% 29.92 in 6.2 mi SSW 13.8 mph - N/A   Mostly Cloudy
10:50 AM 50.0 °F - 46.4 °F 87% 29.92 in 6.2 mi SW 15.0 mph - N/A   Mostly Cloudy
11:00 AM 50 °F - 47 °F 85% 29.92 in 16 mi SW 15.7 mph - -   Mostly Cloudy
11:20 AM 50.0 °F - 48.2 °F 94% 29.92 in 4.3 mi West 13.8 mph - N/A Rain Rain Showers
11:50 AM 50.0 °F - 46.4 °F 87% 29.92 in 6.2 mi West 23.0 mph 34.5 mph N/A   Mostly Cloudy
12:00 PM 51 °F - 46 °F 77% 29.94 in 22 mi West 22.4 mph - - Rain Light Rain Showers
12:20 PM 50.0 °F - 44.6 °F 82% 29.95 in 6.2 mi West 20.7 mph 32.2 mph N/A   Mostly Cloudy
12:50 PM 50.0 °F - 42.8 °F 76% 29.98 in 6.2 mi West 20.7 mph - N/A   Mostly Cloudy
1:00 PM 51 °F - 43 °F 67% 29.98 in 25 mi West 20.1 mph - -   Partly Cloudy
1:20 PM 50.0 °F - 41.0 °F 71% 30.01 in 6.2 mi West 21.9 mph - N/A   Mostly Cloudy
1:50 PM 50.0 °F - 42.8 °F 76% 30.01 in 6.2 mi West 15.0 mph - N/A   Mostly Cloudy
2:00 PM 50 °F - 42 °F 67% 30.02 in 28 mi West 15.7 mph - -   Mostly Cloudy
2:20 PM 50.0 °F - 41.0 °F 71% 30.01 in 6.2 mi West 17.3 mph - N/A   Mostly Cloudy
2:50 PM 50.0 °F - 41.0 °F 71% 30.04 in 6.2 mi West 12.7 mph - N/A   Mostly Cloudy
3:00 PM 49 °F - 41 °F 66% 30.03 in 28 mi West 13.4 mph - -   Mostly Cloudy
3:20 PM 48.2 °F - 41.0 °F 76% 30.04 in 6.2 mi West 9.2 mph - N/A   Mostly Cloudy
3:50 PM 48.2 °F - 41.0 °F 76% 30.04 in 6.2 mi WSW 11.5 mph - N/A   Mostly Cloudy
4:00 PM 48 °F - 42 °F 71% 30.05 in 28 mi WSW 11.2 mph - -   Partly Cloudy
4:20 PM 48.2 °F - 41.0 °F 76% 30.04 in 6.2 mi WSW 11.5 mph - N/A   Mostly Cloudy
4:50 PM 46.4 °F 41.9 °F 41.0 °F 81% 30.04 in 6.2 mi SW 9.2 mph - N/A   Scattered Clouds
5:00 PM 47 °F - 40 °F 70% 30.05 in 25 mi SW 8.9 mph - -   Scattered Clouds
5:20 PM 46.4 °F 42.4 °F 39.2 °F 76% 30.04 in - SW 8.1 mph - N/A   Clear
5:50 PM 46.4 °F 42.9 °F 41.0 °F 81% 30.04 in - SSW 6.9 mph - N/A   Clear
6:00 PM 46 °F - 40 °F 74% 30.05 in 28 mi SSW 6.7 mph - -   Partly Cloudy
6:20 PM 46.4 °F 41.5 °F 41.0 °F 81% 30.06 in - SW 10.4 mph - N/A   Clear
6:50 PM 44.6 °F 40.2 °F 39.2 °F 81% 30.06 in - WSW 8.1 mph - N/A   Clear
7:00 PM 44 °F - 39 °F 76% 30.06 in 25 mi WSW 8.9 mph - -   Partly Cloudy
7:20 PM 44.6 °F 42.2 °F 39.2 °F 81% 30.06 in - WSW 4.6 mph - N/A   Clear
7:50 PM 44.6 °F 40.7 °F 39.2 °F 81% 30.06 in 6.2 mi WSW 6.9 mph - N/A   Partly Cloudy
8:00 PM 44 °F - 40 °F 79% 30.07 in 25 mi WSW 6.7 mph - -   Scattered Clouds
8:20 PM 44.6 °F 40.7 °F 41.0 °F 87% 30.06 in 6.2 mi West 6.9 mph - N/A   Mostly Cloudy
8:50 PM 44.6 °F 41.4 °F 41.0 °F 87% 30.06 in 6.2 mi West 5.8 mph - N/A   Mostly Cloudy
9:00 PM 44 °F - 40 °F 80% 30.07 in 25 mi West 6.7 mph - -   Mostly Cloudy
9:20 PM 46.4 °F 42.4 °F 41.0 °F 81% 30.06 in 6.2 mi WSW 8.1 mph - N/A   Scattered Clouds
9:50 PM 46.4 °F 41.9 °F 39.2 °F 76% 30.06 in 6.2 mi WSW 9.2 mph - N/A   Partly Cloudy
10:00 PM 46 °F - 40 °F 72% 30.07 in 25 mi WSW 8.9 mph - -   Scattered Clouds
10:20 PM 42.8 °F 38.6 °F 37.4 °F 81% 30.06 in 6.2 mi WSW 6.9 mph - N/A   Partly Cloudy
10:50 PM 42.8 °F 39.3 °F 39.2 °F 87% 30.06 in - West 5.8 mph - N/A   Clear
11:00 PM 43 °F - 39 °F 79% 30.06 in 25 mi West 4.5 mph - -   Clear
11:20 PM 41.0 °F 37.1 °F 37.4 °F 87% 30.06 in - West 5.8 mph - N/A   Clear
11:50 PM 41.0 °F - 37.4 °F 87% 30.06 in - SSW 2.3 mph - N/A   Clear